Погода Родино

Погода Родино : погода сейчас, прогноз погоды и архив. Всё, что Вы хотите узнать о погоде Родино!

Поиск расширенной информации на нашем сайте:

Другие новости

Новости СМИ2

Главная страница сайта

Новости сайта

03.07.2017

Напоминаем, что на нашем специализированном сайте Метеоцентр.Азия вы можете получить высокодетализированные автоматические прогнозы погоды по пунктам России, СНГ и мира в авиационном формате (включающие направление и скорость ветра, видимость, явления погоды, количество и форму облачности, нижнюю и верхнюю границу облачности).

Рекомендуем: бани сауны екатеринбурга

Погода Родино - сегодня

Время (UTC), дата Ветер
(°,м/с) 
Видим.   Явления Облачность Т
(°С)
Тd
(°С)
f(%) Тe
(°С)
Pmin
(гПа)
dP
(гПа)
Po
(мм)
O2
(г/м3)
Тmin Tmax R s Состояние
почвы
06 16.04.18 220 (ЮЗ) 20000 м    9/0 верхняя 
[Ci sp]
+10.6 -6.2 30 +9  1007.5  -1.6  741  288           
12 16.04.18 250 (З) 6-11{14}  20000 м    6/6 300 м кучево-дожд. 
[Cb cap]
+12.4 -2.5 35 +11  1005.9  -0.4  740  286    +14.4       
15 16.04.18 250 (З) 3{11}  20000 м    9/9 300 м кучево-дожд. 
[Cb cap]
+10.5 -1.6 43 +10  1006  -0.1  740  287           
00 17.04.18 300 (СЗ) 20000 м    9/8 300 м кучево-дожд., средняя 
[Cb cap|Ac trans]
+2.8 -0.2 81 +1  1011.7  744  297  +2.8         
06 17.04.18 280 (З) 20000 м  {ливн. осадки}  8/6 300 м кучево-дожд., верхняя 
[Cb cap|Ci sp]
+4 -0.3 74 +2  1015.3  2.2  747  297           
09 17.04.18 280 (З) 6{11}  20000 м    8/5 300 м кучево-дожд., верхняя 
[Cb cap|Ci sp]
+6.4 -6.6 39 +4  1014.9  -0.2  747  295           
12 17.04.18 320 (СЗ) 4{11}  20000 м    6/3 300 м кучево-дожд., верхняя 
[Cb cap|Ci sp]
+5.4 -8.5 36 +4  1016.6  1.6  748  296    +7.3     
15 17.04.18 330 (СЗ) 20000 м    9/9 300 м кучево-дожд. 
[Cb cap]
+1.2 -9.5 45 +1  1018.1  1.2  749  301           
18 17.04.18 020 (С) 20000 м    9/8 300 м кучево-дожд., верхняя 
[Cb cap|Ci sp]
-0.3 -9.6 49 -2  1019.4  749  303           
21 17.04.18 060 (СВ) 20000 м    3/1 300 м кучево-дожд., верхняя 
[Cb cap|Ci fib]
-2.4 -8 65 -2  1020.4  0.9  750  306           
00 18.04.18 060 (СВ) 20000 м    4/3 300 м кучево-дожд., верхняя 
[Cb cap|Ci fib]
-4.5 -7 83 -4  1021.1  0.5  751  308  -4.7         
03 18.04.18 080 (В) 20000 м    5/0 верхняя 
[Ci fib]
+1.3 -9.9 43 -1  1020.8  751  302           
06 18.04.18 030 (СВ) 20000 м    9/0 верхняя 
[Ci fib]
+3.3 -11.4 33 +2  1021.1  0.6  751  300           
09 18.04.18 200 (Ю) 20000 м    8/3 600 м верхняя 
[Cu med, cong|Ci sp]
+4.2 -11.9 30 +4  1020.7  -0.4  751  299           
12 18.04.18 020 (С) 20000 м    8/5 300 м кучево-дожд., верхняя 
[Cb cap|Ci sp]
+3.6 -12.1 31 +4  1020.7  751  300    +5.1       
15 18.04.18 090 (В) 20000 м    8/0 средняя, верхняя 
[Ac trans|Ci sp]
+0.5 -8.3 52 1021.5  0.6  751  303           
18 18.04.18 120 (ЮВ) 20000 м    6/0 средняя, верхняя 
[Ac trans|Ci sp]
-0.8 -8.3 57 -3  1021.3  -0.4  751  304           
21 18.04.18 120 (ЮВ) 20000 м    5/0 верхняя 
[Ci sp]
-0.9 -8.7 55 -3  1020.4  -0.9  750  304           
00 19.04.18 120 (ЮВ) 20000 м    9/9 300 м 
[]
-0.7 -9.3 52 -4  1018.9  -1.3  749  304  -1.3         
06 19.04.18 110 (В) 5{10}  20000 м    9/9 600 м 
[Sc]
+3.8 -8.4 40 +1  1014.6  -1.3  746  297           
12 19.04.18 070 (В) 4{11}  20000 м    9/9 300 м кучево-дожд. 
[Cb cap]
+4.5 -8.1 39 +3  1014.9  1.5  746  297    +5.1       
15 19.04.18 270 (З) 20000 м    5/3 300 м кучево-дожд., верхняя 
[Cb cap|Ci sp]
-1.5 -7.3 65 -2  1017.9  2.6  748  304           
18 19.04.18 190 (Ю) 20000 м    5/0 верхняя 
[Ci sp]
-2.9 -5.7 81 -4  1019.7  1.5  750  306           
21 19.04.18 210 (ЮЗ) 20000 м    1/0 верхняя 
[Ci sp]
-3.5 -5.4 87 -5  1021.3  1.6  751  307           
00 20.04.18 200 (Ю) 20000 м    3/0 верхняя 
[Ci fib]
-3.8 -5.1 91 -6  1022.2  0.9  751  308  -4.5         
Время (UTC), дата Ветер
(°,м/с) 
Видим.   Явления Облачность Т
(°С)
Тd
(°С)
f(%) Тe
(°С)
Pmin
(гПа)
dP
(гПа)
Po
(мм)
O2
(г/м3)
Тmin Tmax R s Состояние
почвы

Для получения пояснительной информации подведите курсор к названию столбца.

ПОГОДА Родино - архив

Всё, что Вы хотите узнать о погоде Родино - удобно и подробно!

Выберите нужную дату (начиная с 1 января 2015* года) и нажмите кнопку "Найти".
Будут отображены архивные сводки погоды по пункту Родино, начиная с указанной даты.


Отображать данные в формате CSV (для использования в таблицах Excel)


Внимание! Наш архив погоды предназначен исключительно для личного некоммерческого использования в познавательных целях. Если Вам необходимы официальные справки о состоянии погоды (для производственных, юридических, коммерческих и т.п. целей), обращайтесь в органы Росгидромета.

*Примечание: данная дата относится к архиву по метеостанциям СССР (Россия, СНГ, Балтия).
Архив по метеостанциям Зарубежной Европы и Азии (кроме Китая) хранится 10 дней, по другим регионам земного шара (Китай, Африка, Америка, Австралия, Океания) - 1 день.

Родино - район местоположения метеостанции


Название, широта, долгота, высота метеостанции:
Родино 52.5°ш. 80.2°д. 59 м над ур. моря [Российская Федерация]

Дополнительная информация

В oтличие oт бoльшинства пoгoдных сайтoв мы публикуем пoдрoбную метеoинфoрмацию в детальнoм прoфессиoнальнoм фoрмате.

Характеристики температуры и влажнoсти вoздуха измеряются на высoте 2 м в тени вдали oт зданий и деревьев.
Скoрoсть ветра измеряется на высoте 10 м (на урoвне рoста челoвека скoрoсть ветра ниже в 1.5-2 раза). Если метеoстанция нахoдится в гoрoде или в лесу, тo скoрoсть ветра занижена на 2-4 м/с пo сравнению с oткрытым местoм. Скoрoсть ветра над акватoриями крупных рек и oзёр, а также на вершинах хoлмoв на 2-5 м/с выше, чем в oбычных услoвиях.
Атмoсфернoе давление в разных тoчках местнoсти мoжет значительнo oтличаться oт давления на метеoстанции, в зависимoсти oт услoвий рельефа (при пoдъёме на 10 м давление пoнижается примернo на 1 мм рт.ст.).